Location: Sternwarte_Laufen
(47.9344°N, 12.9346°E)
Time: 15:16:30
(UTC+02:00)

ISS - Pass Details

Date: 28 March 2017
Orbit: 399 x 409 km, 51.6° (Epoch: 29 March)

Event Time Altitude Azimuth Distance (km) Brightness Sun altitude
Rises 20:56:34 0° 221° (SW) 2,302 0.3 -14.4°
Reaches altitude 10° 20:58:44 10° 212° (SSW) 1,449 -0.9 -14.8°
Maximum altitude 21:01:43 35° 145° (SE) 678 -3.2 -15.2°
Enters shadow 21:01:55 34° 136° (SE) 683 -3.2 -15.2°
